Printer-friendly version
Follow the MPC on Twitter Follow the MPC on Facebook The MPC blog
Minor Planet Center

MPEC 2006-W35 : 2006 WR1

The following Minor Planet Electronic Circular may be linked-to from your own Web pages, but must not otherwise be redistributed electronically.

A form allowing access to any MPEC is at the bottom of this page.


Read MPEC 2006-W34 Read MPEC 2006-W36


M.P.E.C. 2006-W35                                Issued 2006 Nov. 20, 19:47 UT

     The Minor Planet Electronic Circulars contain information on unusual
         minor planets and routine data on comets.  They are published
   on behalf of Commission 20 of the International Astronomical Union by the
          Minor Planet Center, Smithsonian Astrophysical Observatory,
                          Cambridge, MA 02138, U.S.A.

             Prepared using the Tamkin Foundation Computer Network

                              MPC@CFA.HARVARD.EDU
          URL http://cfa-www.harvard.edu/iau/mpc.html  ISSN 1523-6714

                                   2006 WR1

Observations:
     K06W01R  C2006 10 22.47931 09 33 21.85 +12 18 17.1          21.2 V EW035G96
     K06W01R  C2006 10 22.48840 09 33 23.36 +12 18 17.1          21.3 V EW035G96
     K06W01R  C2006 10 22.49735 09 33 24.91 +12 18 17.8          21.4 V EW035G96
     K06W01R  C2006 10 22.50642 09 33 26.46 +12 18 18.1          21.3 V EW035G96
     K06W01R* C2006 11 18.48950 11 10 04.75 +12 36 29.5          20.9 V EW035691
     K06W01R  C2006 11 18.50196 11 10 08.17 +12 36 29.5          20.8 V EW035691
     K06W01R  C2006 11 18.51442 11 10 11.52 +12 36 29.9          20.7 V EW035691
     K06W01R  C2006 11 19.20264 11 13 21.23 +12 36 44.8                 EW035J95
     K06W01R  C2006 11 19.21391 11 13 24.42 +12 36 45.6                 EW035J95
     K06W01R  C2006 11 19.22941 11 13 28.67 +12 36 45.2          20.7 R EW035J95
     K06W01R  C2006 11 19.50536 11 14 45.70 +12 36 54.1          19.3 V EW035G96
     K06W01R  C2006 11 19.51074 11 14 47.22 +12 36 53.9          19.6 V EW035G96
     K06W01R  C2006 11 19.51619 11 14 48.73 +12 36 54.3          19.7 V EW035G96
     K06W01R  C2006 11 19.52165 11 14 50.24 +12 36 54.2          19.6 V EW035G96
     K06W01R  C2006 11 20.45226 11 19 13.17 +12 37 10.4          19.4 R EW035H36
     K06W01R  C2006 11 20.46254 11 19 16.14 +12 37 11.0          19.4 R EW035H36
     K06W01R  C2006 11 20.47463 11 19 19.63 +12 37 12.0          19.8 V EW035G96
     K06W01R  C2006 11 20.47653 11 19 20.17 +12 37 12.1          20.0 V EW035G96
     K06W01R  C2006 11 20.47851 11 19 20.74 +12 37 12.1          20.1 V EW035G96
     K06W01R  C2006 11 20.48042 11 19 21.25 +12 37 12.0          20.0 V EW035G96

Observer details:
691 Steward Observatory, Kitt Peak.  Observer J. V. Scotti.  0.9-m f/3
    reflector + CCD.
G96 Mt. Lemmon Survey.  Observers R. A. Kowalski, S. M. Larson, A. R. Gibbs.
    Measurers E. C. Beshore, E. J. Christensen, G. J. Garradd, A. R. Gibbs,
    A. D. Grauer, R. E. Hill, R. A. Kowalski, S. M. Larson, R. H. McNaught.
    1.5-m reflector + CCD.
H36 Sandlot Observatory, Scranton.  Observer G. Hug.  0.30-m
    Schmidt-Cassegrain + CCD.
J95 Great Shefford.  Observer P. Birtwhistle.  0.40-m f/6.0 Schmidt-Cassegrain
    + CCD.

Orbital elements:
2006 WR1                                                 Earth MOID = 0.2323 AU
Epoch 2006 Sept. 22.0 TT = JDT 2454000.5                MPC
M 272.33719              (2000.0)            P               Q
n   0.65884705     Peri.  133.02457     -0.36654621     +0.71654358
a   1.3080158      Node   105.88684     -0.92601841     -0.34279582
e   0.6117196      Incl.   38.10034     +0.09018749     -0.60750006
P   1.50           H   17.6           G   0.15           U   8
Residuals in seconds of arc
061022 G96  0.3+  0.0     061119 J95  0.7-  0.2-    061120 H36  0.2-  0.2-
061022 G96  0.3-  0.3-    061119 J95  0.5+  0.3+    061120 H36  0.7+  0.1+
061022 G96  0.0   0.1+    061119 J95  0.1+  0.5-    061120 G96  0.0   0.3+
061022 G96  0.0   0.2+    061119 G96  0.4-  0.0     061120 G96  0.0   0.4+
061118 691  0.2-  0.4+    061119 G96  0.0   0.3-    061120 G96  0.1+  0.4+
061118 691  0.4+  0.0     061119 G96  0.0   0.1-    061120 G96  0.3-  0.2+
061118 691  0.1-  0.0     061119 G96  0.0   0.3-

Ephemeris:
2006 WR1                 a,e,i = 1.31, 0.61, 38                  q = 0.5079
Date    TT    R. A. (2000) Decl.     Delta      r     Elong.  Phase     V
2006 11 21    11 21.83   +12 37.4    1.059    1.209    72.3    51.1    20.0
2006 12 01    12 15.55   +12 28.9    0.929    1.107    70.6    57.1    19.7
2006 12 11    13 21.47   +11 39.4    0.837    0.999    65.9    64.1    19.5
2006 12 21    14 37.49   +09 34.0    0.799    0.886    58.5    71.3    19.3

Kyle E. Smalley              (C) Copyright 2006 MPC           M.P.E.C. 2006-W35

Read MPEC 2006-W34 Read MPEC 2006-W36


MPEC number:

Enter an MPEC number in one of the following forms:

  • 1997-B01 (the full form)
  • J97B01 (the packed version of the full form)
  • B01 (the abbreviated form)

Valid HTML 4.01!